• In Deutschland
  • Länderverzeichnis
  • Für 7 Tage
  • Wassertemperatur
  • Satellitenkarten
  • Wetterkarte
  • Widgets
  • user-avatar
    Anmelden

    Stündliche Wetter Gamboma

    Heute, 20 August, Sonntag

    Zeit Temperatur Niederschläge Wind Luftdruck Luftfeuchtigkeit
    00:00 +27°C° 0,4 mm 1 m/S 728 mmHg 73%
    01:00 +27°C° 0 mm 1 m/S 729 mmHg 73%
    02:00 +26°C° 0,3 mm 1 m/S 729 mmHg 74%
    03:00 +26°C° 0,3 mm 1 m/S 729 mmHg 76%
    04:00 +26°C° 0,3 mm 1 m/S 729 mmHg 78%
    05:00 +26°C° 0,2 mm 1 m/S 729 mmHg 77%
    06:00 +26°C° 0,2 mm 1 m/S 729 mmHg 77%
    07:00 +27°C° 0 mm 2 m/S 730 mmHg 75%
    08:00 +28°C° 0,2 mm 2 m/S 730 mmHg 68%
    09:00 +30°C° 0,2 mm 2 m/S 730 mmHg 62%
    10:00 +32°C° 0,2 mm 2 m/S 730 mmHg 55%
    11:00 +33°C° 1,2 mm 1 m/S 730 mmHg 53%
    12:00 +33°C° 1,2 mm 1 m/S 729 mmHg 51%
    13:00 +34°C° 1,2 mm 1 m/S 729 mmHg 48%
    14:00 +34°C° 1,2 mm 1 m/S 728 mmHg 50%
    15:00 +33°C° 1,2 mm 1 m/S 728 mmHg 52%
    16:00 +32°C° 1,2 mm 1 m/S 727 mmHg 54%
    17:00 +31°C° 0,4 mm 1 m/S 728 mmHg 58%
    18:00 +30°C° 0,4 mm 1 m/S 728 mmHg 62%
    19:00 +29°C° 0,4 mm 2 m/S 728 mmHg 66%
    20:00 +29°C° 0,1 mm 2 m/S 728 mmHg 67%
    21:00 +29°C° 0,1 mm 1 m/S 729 mmHg 69%
    22:00 +28°C° 0,1 mm 1 m/S 729 mmHg 70%
    23:00 +28°C° 0,1 mm 1 m/S 729 mmHg 72%

    Morgen, 21 August, Montag

    Zeit Temperatur Niederschläge Wind Luftdruck Luftfeuchtigkeit
    00:00 +28°C° 0,1 mm 1 m/S 729 mmHg 73%
    01:00 +27°C° 0,1 mm 1 m/S 729 mmHg 74%
    02:00 +27°C° 0,1 mm 1 m/S 729 mmHg 75%
    03:00 +27°C° 0,1 mm 2 m/S 728 mmHg 77%
    04:00 +27°C° 0,1 mm 2 m/S 728 mmHg 78%
    05:00 +27°C° 0 mm 2 m/S 729 mmHg 77%
    06:00 +27°C° 0 mm 2 m/S 729 mmHg 76%
    07:00 +27°C° 0 mm 3 m/S 729 mmHg 75%
    08:00 +28°C° 0 mm 3 m/S 730 mmHg 68%
    09:00 +30°C° 0 mm 3 m/S 730 mmHg 61%
    10:00 +33°C° 0 mm 3 m/S 730 mmHg 54%
    11:00 +34°C° 0 mm 3 m/S 729 mmHg 52%
    12:00 +34°C° 0 mm 3 m/S 729 mmHg 49%
    13:00 +35°C° 0 mm 2 m/S 728 mmHg 46%
    14:00 +35°C° 0,1 mm 2 m/S 727 mmHg 47%
    15:00 +35°C° 0,1 mm 2 m/S 726 mmHg 47%
    16:00 +34°C° 0,1 mm 2 m/S 726 mmHg 48%
    17:00 +32°C° 0,1 mm 2 m/S 726 mmHg 51%
    18:00 +31°C° 0,1 mm 2 m/S 727 mmHg 55%
    19:00 +30°C° 0,1 mm 2 m/S 727 mmHg 58%
    20:00 +30°C° 0,3 mm 2 m/S 728 mmHg 61%
    21:00 +29°C° 0,3 mm 2 m/S 728 mmHg 65%
    22:00 +28°C° 0,3 mm 2 m/S 728 mmHg 68%
    23:00 +28°C° 0,3 mm 2 m/S 728 mmHg 71%

    übermorgen, 22 August, Dienstag

    Zeit Temperatur Niederschläge Wind Luftdruck Luftfeuchtigkeit
    00:00 +27°C° 0,3 mm 2 m/S 728 mmHg 73%
    01:00 +27°C° 0,3 mm 2 m/S 728 mmHg 76%
    02:00 +26°C° 0,3 mm 2 m/S 728 mmHg 76%
    03:00 +26°C° 0,3 mm 2 m/S 728 mmHg 77%
    04:00 +26°C° 0,3 mm 2 m/S 728 mmHg 78%
    05:00 +26°C° 0,1 mm 2 m/S 728 mmHg 78%
    06:00 +25°C° 0,1 mm 3 m/S 729 mmHg 77%
    07:00 +25°C° 0,1 mm 3 m/S 729 mmHg 77%
    08:00 +27°C° 0 mm 3 m/S 730 mmHg 69%
    09:00 +29°C° 0 mm 3 m/S 730 mmHg 61%
    10:00 +31°C° 0 mm 2 m/S 731 mmHg 53%
    11:00 +32°C° 0 mm 2 m/S 730 mmHg 48%
    12:00 +35°C° 0 mm 2 m/S 729 mmHg 43%
    13:00 +37°C° 0 mm 2 m/S 728 mmHg 38%
    14:00 +36°C° 0 mm 2 m/S 727 mmHg 39%
    15:00 +35°C° 0 mm 1 m/S 726 mmHg 40%
    16:00 +34°C° 0 mm 1 m/S 726 mmHg 41%
    17:00 +33°C° 0 mm 1 m/S 726 mmHg 44%
    18:00 +32°C° 0 mm 1 m/S 726 mmHg 47%
    19:00 +31°C° 0 mm 1 m/S 727 mmHg 51%
    20:00 +31°C° 0,1 mm 1 m/S 727 mmHg 54%
    21:00 +30°C° 0,1 mm 1 m/S 728 mmHg 58%
    22:00 +29°C° 0,1 mm 1 m/S 728 mmHg 61%
    23:00 +29°C° 0,1 mm 1 m/S 728 mmHg 64%

    23 August, Mittwoch

    Zeit Temperatur Niederschläge Wind Luftdruck Luftfeuchtigkeit
    00:00 +28°C° 0,1 mm 1 m/S 728 mmHg 68%
    01:00 +28°C° 0,1 mm 2 m/S 727 mmHg 71%
    02:00 +27°C° 0,1 mm 2 m/S 727 mmHg 72%
    03:00 +27°C° 0,1 mm 2 m/S 727 mmHg 74%
    04:00 +27°C° 0,1 mm 2 m/S 727 mmHg 75%
    05:00 +27°C° 0,1 mm 2 m/S 728 mmHg 75%
    06:00 +27°C° 0,1 mm 2 m/S 728 mmHg 75%
    07:00 +27°C° 0,1 mm 2 m/S 729 mmHg 75%
    08:00 +27°C° 0 mm 3 m/S 729 mmHg 71%
    09:00 +28°C° 0 mm 3 m/S 729 mmHg 68%
    10:00 +29°C° 0 mm 3 m/S 730 mmHg 64%
    11:00 +30°C° 0 mm 3 m/S 729 mmHg 61%
    12:00 +31°C° 0 mm 3 m/S 728 mmHg 57%
    13:00 +33°C° 0 mm 3 m/S 727 mmHg 53%
    14:00 +33°C° 0 mm 3 m/S 727 mmHg 52%
    15:00 +32°C° 0 mm 2 m/S 726 mmHg 52%
    16:00 +32°C° 0 mm 2 m/S 726 mmHg 51%
    17:00 +31°C° 0,1 mm 2 m/S 726 mmHg 55%
    18:00 +30°C° 0,1 mm 1 m/S 727 mmHg 59%
    19:00 +29°C° 0,1 mm 1 m/S 727 mmHg 64%
    20:00 +28°C° 0,3 mm 1 m/S 727 mmHg 68%
    21:00 +28°C° 0,3 mm 2 m/S 728 mmHg 72%
    22:00 +27°C° 0,3 mm 2 m/S 728 mmHg 76%
    23:00 +27°C° 0,1 mm 2 m/S 728 mmHg 77%

    24 August, Donnerstag

    Zeit Temperatur Niederschläge Wind Luftdruck Luftfeuchtigkeit
    00:00 +26°C° 0,1 mm 2 m/S 728 mmHg 78%
    01:00 +26°C° 0,1 mm 2 m/S 727 mmHg 79%
    02:00 +26°C° 0 mm 2 m/S 728 mmHg 79%
    03:00 +25°C° 0 mm 2 m/S 728 mmHg 80%
    04:00 +25°C° 0 mm 2 m/S 728 mmHg 80%
    05:00 +25°C° 0 mm 2 m/S 728 mmHg 79%
    06:00 +26°C° 0 mm 3 m/S 729 mmHg 77%
    07:00 +26°C° 0 mm 3 m/S 729 mmHg 76%
    08:00 +28°C° 0 mm 3 m/S 729 mmHg 69%
    09:00 +30°C° 0 mm 3 m/S 730 mmHg 61%
    10:00 +31°C° 0 mm 3 m/S 730 mmHg 54%
    11:00 +33°C° 0 mm 3 m/S 729 mmHg 50%
    12:00 +34°C° 0 mm 3 m/S 728 mmHg 47%
    13:00 +36°C° 0 mm 3 m/S 727 mmHg 43%
    14:00 +35°C° 0,1 mm 2 m/S 727 mmHg 46%
    15:00 +34°C° 0,1 mm 2 m/S 726 mmHg 48%
    16:00 +32°C° 0,1 mm 2 m/S 726 mmHg 50%
    17:00 +31°C° 0,1 mm 1 m/S 727 mmHg 53%
    18:00 +31°C° 0,1 mm 1 m/S 727 mmHg 56%
    19:00 +30°C° 0,1 mm 1 m/S 727 mmHg 59%
    20:00 +29°C° 0,8 mm 1 m/S 728 mmHg 64%
    21:00 +28°C° 0,8 mm 1 m/S 728 mmHg 69%
    22:00 +27°C° 0,8 mm 2 m/S 729 mmHg 75%
    23:00 +27°C° 0,2 mm 2 m/S 728 mmHg 75%

    25 August, Freitag

    Zeit Temperatur Niederschläge Wind Luftdruck Luftfeuchtigkeit
    00:00 +27°C° 0,2 mm 2 m/S 728 mmHg 76%
    01:00 +26°C° 0,2 mm 2 m/S 728 mmHg 77%
    02:00 +26°C° 0 mm 2 m/S 728 mmHg 78%
    03:00 +26°C° 0 mm 2 m/S 728 mmHg 78%
    04:00 +26°C° 0 mm 2 m/S 728 mmHg 78%
    05:00 +26°C° 0 mm 2 m/S 729 mmHg 78%
    06:00 +26°C° 0 mm 2 m/S 729 mmHg 77%
    07:00 +26°C° 0 mm 2 m/S 729 mmHg 77%
    08:00 +28°C° 0 mm 2 m/S 730 mmHg 69%
    09:00 +29°C° 0 mm 3 m/S 730 mmHg 62%
    10:00 +31°C° 0 mm 3 m/S 730 mmHg 55%
    11:00 +33°C° 0,4 mm 3 m/S 729 mmHg 53%
    12:00 +32°C° 0,4 mm 2 m/S 728 mmHg 52%
    13:00 +34°C° 0,4 mm 2 m/S 728 mmHg 50%
    14:00 +34°C° 0,4 mm 2 m/S 727 mmHg 50%
    15:00 +34°C° 0,4 mm 2 m/S 727 mmHg 50%
    16:00 +34°C° 0,4 mm 2 m/S 726 mmHg 51%
    17:00 +31°C° 0,1 mm 2 m/S 727 mmHg 55%
    18:00 +30°C° 0,1 mm 2 m/S 727 mmHg 59%
    19:00 +29°C° 0,1 mm 2 m/S 727 mmHg 63%
    20:00 +29°C° 0,1 mm 2 m/S 728 mmHg 66%
    21:00 +28°C° 0,1 mm 2 m/S 728 mmHg 69%
    22:00 +28°C° 0,1 mm 2 m/S 729 mmHg 71%
    23:00 +27°C° 0,1 mm 2 m/S 728 mmHg 72%
    Mehr zeigen